EA1EE-12 Weather Reports


time (UTC)temp
C
wind
direction
speed
KPH
gust
KPH
rain 1hr
cm
rain 24hr
cm
rain mn
cm
humidity
%
barometer
mb
20260508085403 10 211 4.8 11.3 0.00 0.00 0.00 94 1008.9
20260508084503 10 210 6.4 14.5 0.00 0.00 0.00 94 1009.0
20260508083603 10 213 6.4 16.1 0.00 0.00 0.00 95 1008.9
20260508082703 10 211 6.4 14.5 0.00 0.00 0.00 95 1008.8
20260508081804 10 211 4.8 11.3 0.00 0.00 0.00 97 1008.8
20260508080903 10 211 6.4 12.9 0.00 0.00 0.00 97 1008.8
20260508080003 10 209 6.4 11.3 0.00 0.00 0.00 97 1009.0
20260508075403 10 213 6.4 14.5 0.00 0.00 0.00 98 1008.9
20260508074503 10 210 6.4 14.5 0.00 0.00 0.00 98 1008.8
20260508073603 10 212 4.8 12.9 0.00 0.00 0.00 98 1008.7
20260508072724 9 209 4.8 11.3 0.00 0.00 0.00 98 1008.6
20260507222703 11 214 3.2 8.0 0.00 0.00 0.00 92 1010.4
20260507221803 11 213 3.2 6.4 0.00 0.00 0.00 90 1010.6
20260507220903 11 209 1.6 4.8 0.00 0.00 0.00 90 1010.6
20260507220003 11 203 3.2 9.7 0.00 0.00 0.00 89 1010.8
20260507215403 11 207 3.2 11.3 0.00 0.00 0.00 89 1010.7
20260507214524 11 196 1.6 6.4 0.00 0.00 0.00 90 1010.8
20260507213603 11 158 0.0 1.6 0.00 0.00 0.00 91 1010.6
20260507212703 11 151 0.0 1.6 0.00 0.00 0.00 91 1010.7
20260507211803 11 132 0.0 1.6 0.00 0.00 0.00 90 1010.6
20260507210903 11 146 0.0 3.2 0.00 0.00 0.00 91 1010.6
20260507210003 11 154 0.0 1.6 0.00 0.00 0.00 91 1010.6
20260507205424 11 146 0.0 1.6 0.00 0.00 0.00 91 1010.5
20260507204504 11 146 0.0 1.6 0.00 0.00 0.00 91 1010.4
20260507203603 11 146 0.0 1.6 0.00 0.00 0.00 92 1010.1
20260507202703 11 145 0.0 1.6 0.00 0.00 0.00 92 1010.1
20260507201805 11 157 0.0 1.6 0.00 0.00 0.00 92 1010.0